INTERCOSMOS 22

Satellite information

Favourite Embed

Satellite Type and Status

PAYLOADIN ORBIT

Key statistics

Satellite INTERCOSMOS 22 at a glance.

Uptime

15981

Days in orbit

Revolutions

≈ 14.2

Per day

Orbit

LEO

Low Earth Orbit

Inclination

81.2

Latest

Satellite identification and parameters

Extended collection of information and parameters for INTERCOSMOS 22.

Object identification

Identified? True

Debris? False

Object name: INTERCOSMOS 22

International designator: 1981-075A

Object number (NORAD): 12645

Object ID (CCSDS): 12645

Country: COMMONWEALTH OF INDEPENDENT STATES (CIS)

Current information (Y/N): Y

RCS size: LARGE

Orbital parameters

Period: 101.489 minutes

Inclination: 81.2176 deg

SMA: 7207.308 km

Apoapsis: 873.739 km

Periapsis: 784.608 km

RAAN: 247.9011 deg

Eccentricy: 0.0061834

Argument of periapsis: 290.0673 deg

Mean anomaly: 69.3853 deg

Mean motion: 14.1887168 rev/day

Mean motion (dot): 0.00000089 rev/day2

B* drag term: 0.000036123 1/REarth

Two-line elements (TLE)

Creation date: May 9, 2025, 2:46 a.m.

Reference frame: TEME

Reference center: EARTH

Epoch: May 8, 2025, 4:31 p.m. UTC

TLE line 0: 0 INTERCOSMOS 22

TLE line 1: 1 12645U 81075A 25128.68870954 .00000089 00000-0 36123-4 0 9990

TLE line 2: 2 12645 81.2176 247.9011 0061834 290.0673 69.3853 14.18871680262680

Live tracking on map

Real-time ground track for satellite INTERCOSMOS 22.

In-orbit conjunctions

A list of the most updated potential collisions computed for object INTERCOSMOS 22.

Target Orbit TCA Probability of collision Miss distance Type
CZ-6A DEB SSO 2025-03-30 09:24:53 0.0001151931 678.0 (m) DEBRIS
FENGYUN 1C DEB SSO 2025-03-20 16:42:56 0.0002671949 148.0 (m) DEBRIS
NOAA 16 DEB SSO 2025-03-15 02:09:00 0.0003166204 375.0 (m) DEBRIS
CZ-6A DEB LEO 2025-02-23 21:32:12 0.0001300488 540.0 (m) DEBRIS
METEOR 2-5 DEB LEO 2025-02-07 18:12:43 0.0005358279 148.0 (m) DEBRIS

Associated space launch

Interkosmos satellite research satellite carrying scientific experiments designed and built in Bulgaria

INTERCOSMOS 22 was lifted into orbit during the mission ‘Vostok 8A92M | Bulgaria 1300’, on board a Vostok 8A92M space rocket.

The launch took place on Aug. 7, 1981, 1:35 p.m. from 43/3 (43L).

For more information about the launch, click the button.

Launch to space Vostok 8A92M | Bulgaria 1300
Vostok 8A92M | Bulgaria 1300

Agency: N/A

Status: Launch Successful

Launch date: Aug. 7, 1981, 1:35 p.m. UTC

Rocket: Vostok 8A92M

Launch pad: 43/3 (43L)

Location: Plesetsk Cosmodrome, Russian Federation

...

Latest news about this satellite

There are no fresh news available about this satellite. Check back as we update our databases every day.


Newsletter sign-up

Weekly statistics, charts and insights to help you stay on top of the space industry.